Regional Weather Roundup
Issued by NWS Cleveland, OH

Home | Current Version | Previous Version | Text Only | Print | Product List | Glossary Off
Versions: 1 2 3 4 5 6 7 8 9 10 11 12 13 14 15 16 17 18 19 20 21 22 23 24 25 26 27 28 29 30 31 32 33 34 35 36 37 38 39 40 41 42 43 44 45 46 47 48 49 50

000
ASUS41 KCLE 210710
RWRCLE
OHIO REGIONAL WEATHER ROUNDUP
NATIONAL WEATHER SERVICE WILMINGTON, OH
200 AM EST SUN DEC 21 2014

NOTE: "FAIR" INDICATES FEW OR NO CLOUDS BELOW 12,000 FEET WITH NO
SIGNIFICANT WEATHER AND/OR OBSTRUCTIONS TO VISIBILITY.

OHZ001>008-015>018-024>027-034-035-043-044-210800-
   NORTHWEST OHIO

CITY           SKY/WX    TMP DP  RH WIND       PRES   REMARKS
DEFIANCE       CLOUDY    23  21  92 CALM      30.29S FOG
FINDLAY        PTCLDY    25  22  88 CALM      30.27S FOG
TOLEDO EXPRESS CLEAR     22  20  92 CALM      30.28S
TOLEDO METCALF MOCLDY    29  23  78 CALM      30.29S
LIMA           CLOUDY    31  25  78 CALM      30.27S HAZE
$$

OHZ009>014-019>023-028>033-038-089-210800-
   NORTHEAST OHIO

CITY           SKY/WX    TMP DP  RH WIND       PRES   REMARKS
CLE-HOPKINS    CLOUDY    29  22  75 SW5       30.30R WCI  24
CLE-LAKEFRONT  CLOUDY    31  22  69 SW6       30.28R WCI  25
CUY CO. ARPT   NOT AVBL
LORAIN-ELYRIA  CLOUDY    27  25  92 CALM      30.28S FOG
ASHTABULA      CLOUDY    29  24  82 CALM      30.27R
AKRON-CANTON   CLOUDY    27  22  81 CALM      30.25R
WOOSTER        CLOUDY    27  24  89 CALM      30.27R
MANSFIELD      CLOUDY    28  24  85 SW3       30.25S
YOUNGSTOWN     CLOUDY    28  23  81 CALM      30.25R
$$

OHZ042-051>053-060>062-070>072-077>081-210800-
  SOUTHWEST OHIO

CITY           SKY/WX    TMP DP  RH WIND       PRES   REMARKS
CINC-COVINGTON CLOUDY    32  22  66 N5        30.28S WCI  27
CINC-LUNKEN    CLOUDY    31  27  85 CALM      30.32S
HAMILTON       CLEAR     19  16  88 CALM      30.31F FOG
DAYTON         MOCLDY    27  22  81 CALM      30.29S
WRIGHT-PAT AFB CLOUDY    29  25  86 CALM      30.29S
DAYTON GENERAL CLOUDY    27  24  89 CALM      30.28S FOG
WILMINGTON     CLOUDY    23  20  88 CALM      30.28S FOG
$$

OHZ036-037-039>041-045>050-054>059-063>069-073>076-082>088-210800-
  CENTRAL AND SOUTHEAST OHIO

CITY           SKY/WX    TMP DP  RH WIND       PRES   REMARKS
COLUMBUS       CLOUDY    30  24  78 CALM      30.29R
OSU AIRPORT    CLOUDY    29  25  85 W3        30.28S
BOLTON FIELD   CLOUDY    28  26  96 MISG      30.29S FOG
RICKENBACK AFB CLOUDY    29  27  90 CALM      30.29S FOG
NEWARK         CLOUDY    31  26  82 CALM      30.28R
MARION         CLOUDY    29  24  82 SW5       30.28R HAZE    WCI  24
LANCASTER      CLOUDY    35  27  72 CALM      30.29R
ZANESVILLE     CLOUDY    29  24  82 CALM      30.28R
NEW PHILLY     CLOUDY    30  23  75 CALM      30.29R
$$



USA.gov is the U.S. government's official web portal to all federal, state and local government web resources and services.